GW3327 Weather Reports


Display with metric or nautical units.
time (UTC)temp
F
wind
direction
speed
MPH
gust
MPH
rain 1hr
in
rain 24hr
in
rain mn
in
humidity
%
barometer
mb
20260507174551 58 171 5.0 6.0 0.00 0.00 0.00 44 1012.3
20260507174049 56 280 2.0 3.0 0.00 0.00 0.00 44 1011.9
20260507173546 56 291 1.0 6.0 0.00 0.00 0.00 47 1012.1
20260507173043 58 211 3.0 8.0 0.00 0.00 0.00 44 1012.3
20260507172538 58 232 0.0 8.0 0.00 0.00 0.00 46 1012.1
20260507172036 57 173 5.0 9.0 0.00 0.00 0.00 45 1012.3
20260507171531 56 236 0.0 6.0 0.00 0.00 0.00 50 1012.4
20260507171028 59 204 2.0 6.0 0.00 0.00 0.00 46 1012.4
20260507170525 58 239 4.0 10.0 0.00 0.00 0.00 43 1012.5
20260507170022 57 262 2.0 8.0 0.00 0.00 0.00 45 1012.6
20260507165518 55 275 1.0 6.0 0.00 0.00 0.00 45 1012.6
20260507165015 56 290 3.0 9.0 0.00 0.00 0.00 46 1012.9
20260507164511 57 185 4.0 8.0 0.00 0.00 0.00 47 1012.8
20260507164008 56 219 4.0 6.0 0.00 0.00 0.00 45 1012.8
20260507163505 56 220 2.0 3.0 0.00 0.00 0.00 48 1012.9
20260507163003 58 277 3.0 4.0 0.00 0.00 0.00 43 1012.8
20260507162457 56 233 1.0 4.0 0.00 0.00 0.00 54 1012.8
20260507161955 56 303 3.0 6.0 0.00 0.00 0.00 46 1012.9
20260507161451 55 215 0.0 3.0 0.00 0.00 0.00 44 1013.0
20260507160948 56 202 2.0 4.0 0.00 0.00 0.00 45 1013.0
20260507160444 54 306 1.0 4.0 0.00 0.00 0.00 48 1013.2
20260507155939 55 244 3.0 6.0 0.00 0.00 0.00 49 1013.0
20260507155436 55 280 2.0 3.0 0.00 0.00 0.00 47 1013.0
20260507154933 55 265 1.0 8.0 0.00 0.00 0.00 46 1013.0
20260507154429 55 215 4.0 7.0 0.00 0.00 0.00 47 1013.3
20260507153927 54 304 3.0 6.0 0.00 0.00 0.00 49 1013.2
20260507153423 55 240 6.0 8.0 0.00 0.00 0.00 45 1013.3
20260507152919 55 247 4.0 7.0 0.00 0.00 0.00 46 1013.2
20260507152416 53 222 2.0 6.0 0.00 0.00 0.00 47 1013.4
20260507151912 54 274 4.0 6.0 0.00 0.00 0.00 46 1013.3
20260507151409 53 235 2.0 7.0 0.00 0.00 0.00 47 1013.6
20260507150906 55 230 4.0 6.0 0.00 0.00 0.00 48 1013.5
20260507150402 53 215 1.0 4.0 0.00 0.00 0.00 46 1013.7
20260507145859 55 216 4.0 6.0 0.00 0.00 0.00 48 1013.8
20260507145355 53 237 0.0 2.0 0.00 0.00 0.00 46 1013.7
20260507144852 54 306 5.0 7.0 0.00 0.00 0.00 47 1013.9
20260507144349 53 253 0.0 6.0 0.00 0.00 0.00 47 1013.8
20260507143846 53 232 3.0 7.0 0.00 0.00 0.00 49 1014.1
20260507143343 53 244 2.0 4.0 0.00 0.00 0.00 48 1014.0
20260507142839 53 270 4.0 7.0 0.00 0.00 0.00 46 1013.9
20260507142336 53 233 3.0 6.0 0.00 0.00 0.00 50 1014.0
20260507141832 53 234 4.0 10.0 0.00 0.00 0.00 49 1014.2
20260507141329 53 268 2.0 4.0 0.00 0.00 0.00 50 1014.4
20260507140826 52 270 0.0 2.0 0.00 0.00 0.00 49 1014.2
20260507140322 53 239 0.0 6.0 0.00 0.00 0.00 51 1014.5
20260507135820 52 217 2.0 6.0 0.00 0.00 0.00 50 1014.5
20260507135317 51 216 1.0 6.0 0.00 0.00 0.00 51 1014.8
20260507134814 51 210 2.0 6.0 0.00 0.00 0.00 51 1014.5
20260507134310 52 287 4.0 4.0 0.00 0.00 0.00 52 1014.7
20260507133806 51 255 4.0 7.0 0.00 0.00 0.00 52 1014.6
20260507133302 52 231 2.0 6.0 0.00 0.00 0.00 51 1014.6
20260507132801 51 275 2.0 3.0 0.00 0.00 0.00 52 1014.6
20260507132257 51 222 0.0 3.0 0.00 0.00 0.00 55 1014.7
20260507131754 50 287 0.0 0.0 0.00 0.00 0.00 62 1014.5
20260507131251 48 288 0.0 2.0 0.00 0.00 0.00 65 1014.6
20260507130747 50 288 1.0 4.0 0.00 0.00 0.00 62 1014.7
20260507130245 49 288 0.0 1.0 0.00 0.00 0.00 62 1014.6
20260507125744 49 288 0.0 2.0 0.00 0.00 0.00 63 1014.7
20260507125241 49 288 1.0 2.0 0.00 0.00 0.00 62 1014.7
20260507124737 48 288 0.0 1.0 0.00 0.00 0.00 67 1014.8
20260507124234 48 288 1.0 3.0 0.00 0.00 0.00 69 1014.8
20260507123733 48 288 1.0 2.0 0.00 0.00 0.00 75 1014.7
20260507123230 47 288 1.0 2.0 0.00 0.00 0.00 74 1014.8
20260507122725 47 288 1.0 2.0 0.00 0.00 0.00 76 1014.9
20260507122221 47 288 0.0 0.0 0.00 0.00 0.00 76 1014.8
20260507121717 46 288 0.0 0.0 0.00 0.00 0.00 79 1014.8
20260507121213 45 289 0.0 0.0 0.00 0.00 0.00 81 1014.8
20260507120709 45 289 0.0 0.0 0.00 0.00 0.00 82 1014.8
20260507120207 44 289 0.0 0.0 0.00 0.00 0.00 86 1014.8
20260507115702 42 289 0.0 0.0 0.00 0.00 0.00 90 1014.9
20260507115158 40 289 0.0 1.0 0.00 0.00 0.00 95 1015.0
20260507114654 40 289 0.0 0.0 0.00 0.00 0.00 98 1014.9
20260507114151 39 289 0.0 0.0 0.00 0.00 0.00 98 1014.8
20260507113649 38 289 0.0 0.0 0.00 0.00 0.00 99 1014.9
20260507113146 37 289 0.0 0.0 0.00 0.00 0.00 99 1014.7
20260507112644 37 289 0.0 0.0 0.00 0.00 0.00 99 1014.7
20260507112140 36 289 0.0 0.0 0.00 0.00 0.00 98 1014.7
20260507111637 35 289 0.0 0.0 0.00 0.00 0.00 98 1014.4
20260507111134 35 289 0.0 0.0 0.00 0.00 0.00 98 1014.5
20260507110630 34 289 0.0 0.0 0.00 0.00 0.00 98 1014.4
20260507110127 34 289 0.0 0.0 0.00 0.00 0.00 98 1014.1
20260507105624 33 289 0.0 0.0 0.00 0.00 0.00 98 1014.4
20260507105119 33 289 0.0 0.0 0.00 0.00 0.00 98 1014.1
20260507104617 32 289 0.0 0.0 0.00 0.00 0.00 97 1014.1
20260507104113 32 289 0.0 0.0 0.00 0.00 0.00 97 1014.1
20260507103610 32 289 0.0 0.0 0.00 0.00 0.00 97 1014.2
20260507103107 32 289 0.0 0.0 0.00 0.00 0.00 97 1013.9
20260507102603 32 289 0.0 0.0 0.00 0.00 0.00 97 1014.0
20260507102059 32 289 0.0 0.0 0.00 0.00 0.00 97 1013.9
20260507101554 32 289 0.0 0.0 0.00 0.00 0.00 97 1013.8
20260507101051 32 289 0.0 0.0 0.00 0.00 0.00 97 1013.8
20260507100548 33 289 0.0 0.0 0.00 0.00 0.00 97 1014.0
20260507100047 33 289 0.0 0.0 0.00 0.00 0.00 96 1013.9
20260507095544 33 289 0.0 0.0 0.00 0.00 0.00 96 1013.9
20260507095041 33 289 0.0 0.0 0.00 0.00 0.00 96 1013.7
20260507094537 33 289 0.0 0.0 0.00 0.00 0.00 96 1013.9
20260507094034 33 289 0.0 0.0 0.00 0.00 0.00 96 1013.8
20260507093531 34 289 0.0 0.0 0.00 0.00 0.00 95 1013.8
20260507093030 34 289 0.0 0.0 0.00 0.00 0.00 95 1013.9
20260507092526 34 289 0.0 0.0 0.00 0.00 0.00 95 1014.0
20260507092023 34 289 0.0 0.0 0.00 0.00 0.00 95 1014.1
20260507091520 35 289 0.0 0.0 0.00 0.00 0.00 94 1013.9
20260507091016 35 289 0.0 0.0 0.00 0.00 0.00 94 1013.9
20260507090512 35 289 0.0 0.0 0.00 0.00 0.00 93 1014.0
20260507090009 36 289 0.0 0.0 0.00 0.00 0.00 93 1013.9
20260507085506 36 289 0.0 0.0 0.00 0.00 0.00 92 1013.8
20260507085002 37 289 0.0 0.0 0.00 0.00 0.00 92 1013.9
20260507084459 37 289 0.0 0.0 0.00 0.00 0.00 91 1013.8
20260507083956 38 289 0.0 0.0 0.00 0.00 0.00 90 1013.8
20260507083452 39 289 0.0 0.0 0.00 0.00 0.00 89 1013.7
20260507082949 39 289 0.0 0.0 0.00 0.00 0.00 88 1013.8
20260507082445 41 289 0.0 0.0 0.00 0.00 0.00 87 1013.7
20260507081942 42 289 0.0 0.0 0.00 0.00 0.00 85 1013.6
20260507081438 42 289 0.0 0.0 0.00 0.00 0.00 82 1013.8
20260507080935 43 289 0.0 1.0 0.00 0.00 0.00 78 1013.7
20260507080432 44 289 0.0 0.0 0.00 0.00 0.00 80 1013.6
20260507075926 44 289 1.0 2.0 0.00 0.00 0.00 72 1013.7
20260507075423 44 289 0.0 1.0 0.00 0.00 0.00 75 1013.7
20260507074919 44 289 0.0 0.0 0.00 0.00 0.00 73 1013.9
20260507074416 44 289 0.0 0.0 0.00 0.00 0.00 74 1013.9
20260507073909 44 289 1.0 2.0 0.00 0.00 0.00 72 1013.8
20260507073405 45 289 0.0 0.0 0.00 0.00 0.00 73 1013.7
20260507072902 45 289 2.0 2.0 0.00 0.00 0.00 72 1013.6
20260507072359 45 289 1.0 2.0 0.00 0.00 0.00 74 1013.7
20260507071856 44 288 1.0 2.0 0.00 0.00 0.00 74 1013.7
20260507071353 44 288 0.0 0.0 0.00 0.00 0.00 77 1013.4
20260507070849 44 288 0.0 0.0 0.00 0.00 0.00 74 1013.7
20260507070347 44 288 0.0 0.0 0.00 0.00 0.00 74 1013.8
20260507065844 44 288 0.0 0.0 0.00 0.00 0.00 79 1013.8
20260507065340 44 288 0.0 0.0 0.00 0.00 0.00 81 1013.8
20260507064838 44 288 0.0 0.0 0.00 0.00 0.00 75 1013.8
20260507064336 44 288 0.0 1.0 0.00 0.00 0.00 75 1013.8
20260507063833 44 288 0.0 1.0 0.00 0.00 0.00 75 1013.6
20260507063330 44 288 0.0 1.0 0.00 0.00 0.00 78 1013.7
20260507062827 44 288 0.0 0.0 0.00 0.00 0.00 86 1013.9
20260507062324 43 288 0.0 0.0 0.00 0.00 0.00 87 1014.0
20260507061822 43 288 0.0 0.0 0.00 0.00 0.00 89 1014.2
20260507061320 43 288 0.0 0.0 0.00 0.00 0.00 88 1014.1
20260507060818 44 288 0.0 0.0 0.00 0.00 0.00 87 1014.1
20260507060314 44 288 0.0 0.0 0.00 0.00 0.00 85 1014.1
20260507055811 44 288 0.0 0.0 0.00 0.00 0.00 85 1014.1
20260507055306 44 288 0.0 0.0 0.00 0.00 0.00 83 1014.4
20260507054803 44 288 0.0 0.0 0.00 0.00 0.00 85 1014.2
20260507054259 44 288 0.0 0.0 0.00 0.00 0.00 87 1014.1
20260507053757 44 288 0.0 0.0 0.00 0.00 0.00 89 1014.2
20260507053254 45 288 0.0 0.0 0.00 0.00 0.00 89 1014.4
20260507052753 45 288 0.0 0.0 0.00 0.00 0.00 87 1014.5
20260507052249 46 288 0.0 0.0 0.00 0.00 0.00 84 1014.6
20260507051747 46 288 0.0 0.0 0.00 0.00 0.00 82 1014.5
20260507051244 46 288 0.0 0.0 0.00 0.00 0.00 80 1014.5
20260507050741 46 288 0.0 0.0 0.00 0.00 0.00 79 1014.5
20260507050237 46 288 0.0 0.0 0.00 0.00 0.00 79 1014.6
20260507045734 46 288 0.0 0.0 0.00 0.00 0.00 77 1014.4
20260507045230 46 288 0.0 0.0 0.00 0.00 0.00 79 1014.5
20260507044728 46 288 0.0 0.0 0.00 0.00 0.00 80 1014.4
20260507044224 46 288 0.0 1.0 0.00 0.00 0.00 78 1014.5
20260507043720 46 288 0.0 0.0 0.00 0.00 0.00 80 1014.4
20260507043217 46 288 0.0 0.0 0.00 0.00 0.00 80 1014.2
20260507042714 47 288 0.0 0.0 0.00 0.00 0.00 80 1014.6
20260507042208 47 288 0.0 0.0 0.00 0.00 0.00 79 1014.5
20260507041706 47 288 0.0 1.0 0.00 0.00 0.00 79 1014.5
20260507041203 47 288 0.0 0.0 0.00 0.00 0.00 80 1014.1
20260507040700 47 288 0.0 1.0 0.00 0.00 0.00 80 1014.5
20260507040155 47 288 0.0 2.0 0.00 0.00 0.00 79 1014.7
20260507035652 47 288 1.0 1.0 0.00 0.13 0.13 80 1014.4
20260507035148 47 288 0.0 1.0 0.00 0.13 0.13 79 1014.4
20260507034645 47 288 0.0 1.0 0.00 0.13 0.13 80 1014.4
20260507034142 47 288 0.0 1.0 0.00 0.13 0.13 80 1014.6
20260507033641 48 288 0.0 0.0 0.00 0.13 0.13 82 1014.6
20260507033137 48 288 3.0 3.0 0.00 0.13 0.13 82 1014.4
20260507032635 48 289 1.0 2.0 0.00 0.13 0.13 81 1014.2
20260507032131 48 288 0.0 3.0 0.00 0.13 0.13 82 1014.2
20260507031628 48 282 0.0 0.0 0.00 0.13 0.13 85 1014.0
20260507031124 48 282 0.0 0.0 0.00 0.13 0.13 84 1013.9
20260507030621 48 282 0.0 0.0 0.00 0.13 0.13 85 1014.1
20260507030119 48 282 1.0 2.0 0.00 0.13 0.13 83 1014.0
20260507025616 48 281 1.0 1.0 0.00 0.13 0.13 84 1014.0
20260507025113 48 281 1.0 2.0 0.00 0.13 0.13 83 1013.9
20260507024611 48 275 1.0 1.0 0.00 0.13 0.13 84 1014.1
20260507024107 48 275 0.0 0.0 0.00 0.13 0.13 83 1014.2
20260507023602 48 269 1.0 2.0 0.00 0.13 0.13 84 1014.1
20260507023100 48 208 3.0 4.0 0.00 0.13 0.13 84 1014.0
20260507022557 48 241 0.0 0.0 0.00 0.13 0.13 86 1014.2
20260507022052 48 241 0.0 0.0 0.00 0.13 0.13 86 1014.0
20260507021549 48 241 0.0 0.0 0.00 0.13 0.13 86 1013.7
20260507021045 49 255 0.0 2.0 0.00 0.13 0.13 85 1013.5
20260507020543 49 256 0.0 0.0 0.00 0.13 0.13 86 1013.2
20260507020039 49 243 0.0 0.0 0.00 0.13 0.13 88 1013.2
20260507015538 49 243 0.0 0.0 0.00 0.13 0.13 88 1013.2
20260507015035 49 243 0.0 1.0 0.00 0.13 0.13 88 1013.3
20260507014531 49 242 2.0 2.0 0.00 0.13 0.13 88 1013.4
20260507014027 49 243 0.0 1.0 0.00 0.13 0.13 88 1013.4
20260507013524 49 243 1.0 6.0 0.00 0.13 0.13 87 1013.3
20260507013021 49 261 0.0 0.0 0.00 0.13 0.13 88 1013.1
20260507012518 49 261 0.0 0.0 0.00 0.13 0.13 88 1013.3
20260507012009 49 261 0.0 2.0 0.00 0.13 0.13 87 1013.3
20260507011507 49 260 0.0 1.0 0.00 0.13 0.13 87 1013.4
20260507011002 49 260 1.0 2.0 0.00 0.13 0.13 87 1013.2
20260507010456 49 260 0.0 1.0 0.00 0.13 0.13 87 1013.4
20260507005953 49 261 1.0 2.0 0.00 0.13 0.13 87 1013.4
20260507005450 49 260 1.0 2.0 0.00 0.13 0.13 86 1013.7
20260507004947 49 260 0.0 4.0 0.00 0.13 0.13 87 1013.5
20260507004443 49 257 1.0 2.0 0.00 0.13 0.13 87 1013.7
20260507003941 49 229 2.0 2.0 0.00 0.13 0.13 88 1013.9
20260507003436 49 229 0.0 0.0 0.00 0.13 0.13 88 1013.6
20260507002931 49 229 0.0 1.0 0.00 0.13 0.13 88 1013.9
20260507002428 49 229 2.0 2.0 0.00 0.13 0.13 88 1014.0
20260507001925 49 232 0.0 1.0 0.00 0.13 0.13 89 1013.7
20260507001422 49 232 1.0 1.0 0.00 0.13 0.13 88 1013.6
20260507000919 49 241 1.0 2.0 0.00 0.13 0.13 88 1013.3
20260507000414 50 231 1.0 3.0 0.00 0.13 0.13 88 1013.1
20260506235910 50 251 0.0 2.0 0.00 0.13 0.13 88 1013.4
20260506235408 50 239 0.0 2.0 0.00 0.13 0.13 88 1013.6
20260506234903 50 239 0.0 1.0 0.00 0.13 0.13 88 1013.5
20260506234402 50 239 2.0 2.0 0.00 0.13 0.13 88 1013.2
20260506233859 50 251 0.0 1.0 0.00 0.13 0.13 88 1013.2
20260506233354 50 247 0.0 1.0 0.00 0.13 0.13 88 1013.2
20260506232852 50 242 0.0 0.0 0.00 0.13 0.13 88 1013.3
20260506232347 50 255 0.0 3.0 0.00 0.13 0.13 88 1013.0
20260506231839 50 244 1.0 2.0 0.00 0.13 0.13 88 1012.7
20260506231337 50 236 1.0 2.0 0.00 0.13 0.13 88 1013.0
20260506230834 50 248 1.0 3.0 0.00 0.13 0.13 88 1012.7
20260506230331 50 240 0.0 2.0 0.00 0.13 0.13 88 1012.7
20260506225827 50 265 3.0 3.0 0.00 0.13 0.13 88 1012.7
20260506225324 50 284 3.0 4.0 0.00 0.13 0.13 88 1012.7
20260506224821 50 241 3.0 4.0 0.00 0.13 0.13 88 1012.4
20260506224318 50 234 1.0 7.0 0.00 0.13 0.13 88 1012.8
20260506223814 50 275 1.0 3.0 0.00 0.13 0.13 88 1012.5
20260506223309 50 290 2.0 7.0 0.00 0.13 0.13 89 1012.7
20260506222806 50 230 3.0 7.0 0.00 0.13 0.13 89 1012.6
20260506222305 50 291 2.0 7.0 0.00 0.13 0.13 90 1012.6
20260506221800 50 252 1.0 2.0 0.00 0.13 0.13 91 1012.5
20260506221257 51 260 2.0 4.0 0.00 0.13 0.13 90 1012.6
20260506220755 51 290 2.0 3.0 0.00 0.13 0.13 91 1012.4
20260506220249 51 237 2.0 4.0 0.00 0.13 0.13 90 1012.5
20260506215746 51 274 3.0 7.0 0.00 0.13 0.13 91 1012.5
20260506215242 51 238 3.0 6.0 0.00 0.13 0.13 91 1012.4
20260506214738 51 240 0.0 8.0 0.00 0.13 0.13 90 1012.0
20260506214236 51 282 2.0 3.0 0.00 0.13 0.13 91 1012.1
20260506213734 51 312 2.0 4.0 0.00 0.13 0.13 91 1011.8
20260506213231 51 238 1.0 3.0 0.00 0.13 0.13 91 1012.0
20260506212728 51 226 2.0 4.0 0.00 0.13 0.13 92 1011.8
20260506212223 51 238 2.0 3.0 0.00 0.13 0.13 93 1011.8
20260506211714 51 238 0.0 2.0 0.00 0.13 0.13 93 1011.9
20260506211210 51 238 2.0 3.0 0.00 0.13 0.13 94 1011.5
20260506210707 51 243 1.0 3.0 0.00 0.13 0.13 95 1011.6
20260506210204 51 249 2.0 4.0 0.00 0.13 0.13 95 1011.5
20260506205702 51 247 0.0 1.0 0.00 0.13 0.13 95 1011.4
20260506205201 51 233 1.0 2.0 0.00 0.13 0.13 95 1011.3
20260506204659 51 281 2.0 4.0 0.00 0.13 0.13 95 1011.5
20260506204156 51 265 2.0 3.0 0.00 0.13 0.13 95 1011.5
20260506203654 51 223 0.0 6.0 0.00 0.13 0.13 95 1011.5
20260506203151 51 257 2.0 4.0 0.00 0.13 0.13 95 1011.3
20260506202649 51 269 2.0 4.0 0.00 0.13 0.13 95 1011.2
20260506202145 51 265 1.0 4.0 0.00 0.13 0.13 95 1011.2
20260506201642 51 213 4.0 6.0 0.00 0.13 0.13 95 1011.3
20260506201138 51 259 0.0 2.0 0.00 0.13 0.13 96 1011.3
20260506200635 51 245 1.0 6.0 0.00 0.13 0.13 96 1011.1
20260506200132 51 276 2.0 4.0 0.00 0.13 0.13 95 1011.1
20260506195628 51 288 3.0 6.0 0.00 0.13 0.13 95 1011.3
20260506195125 52 303 3.0 3.0 0.00 0.13 0.13 94 1011.2
20260506194622 52 223 3.0 4.0 0.00 0.13 0.13 94 1011.3
20260506194118 53 241 2.0 3.0 0.00 0.13 0.13 93 1011.1
20260506193616 52 231 3.0 3.0 0.00 0.13 0.13 93 1011.1
20260506193114 53 256 1.0 4.0 0.00 0.13 0.13 95 1011.2
20260506192610 52 242 0.0 6.0 0.00 0.13 0.13 96 1011.2
20260506192106 52 207 3.0 4.0 0.00 0.13 0.13 96 1011.2
20260506191603 51 229 1.0 6.0 0.00 0.13 0.13 96 1011.2
20260506191058 51 229 1.0 7.0 0.00 0.13 0.13 95 1011.1
20260506190556 52 240 3.0 7.0 0.00 0.13 0.13 94 1011.0
20260506190053 52 199 4.0 7.0 0.00 0.13 0.13 95 1011.0
20260506185550 52 225 5.0 8.0 0.00 0.13 0.13 94 1011.1
20260506185047 53 198 2.0 7.0 0.00 0.13 0.13 94 1011.0
20260506184544 53 209 2.0 3.0 0.00 0.13 0.13 95 1010.8
20260506184042 53 257 4.0 7.0 0.00 0.13 0.13 94 1010.9
20260506183537 54 242 2.0 4.0 0.00 0.13 0.13 94 1011.0
20260506183034 54 217 3.0 6.0 0.00 0.13 0.13 91 1010.8
20260506182531 54 252 1.0 8.0 0.00 0.13 0.13 92 1010.6
20260506182029 55 253 3.0 6.0 0.00 0.13 0.13 91 1010.6
20260506181526 56 250 1.0 2.0 0.00 0.13 0.13 91 1010.5
20260506181023 56 196 3.0 6.0 0.00 0.13 0.13 90 1010.7
20260506180520 56 232 2.0 7.0 0.00 0.13 0.13 90 1010.4
20260506180016 56 160 4.0 9.0 0.00 0.13 0.13 91 1010.1
20260506175513 56 232 7.0 9.0 0.00 0.13 0.13 90 1010.3
20260506175009 56 244 2.0 4.0 0.00 0.13 0.13 93 1010.4